Regional Weather Roundup
Issued by NWS

Home | Current Version | Previous Version | Text Only | Print | Product List | Glossary Off
Versions: 1 2 3 4 5 6 7 8 9 10 11 12 13 14 15 16 17 18 19 20 21 22 23 24 25 26 27 28 29 30 31 32 33 34 35 36 37 38 39 40 41 42 43 44 45 46 47 48 49 50

000
ASUS45 KPSR 270800
RWRAZ

ARIZONA HOURLY REGIONAL WEATHER ROUNDUP
NATIONAL WEATHER SERVICE PHOENIX AZ
100 AM MST THU AUG 27 2015

NOTE: FAIR INDICATES FEW OR NO CLOUDS BELOW 12,000 FEET WITH NO
SIGNIFICANT WEATHER AND/OR OBSTRUCTIONS TO VISIBILITY.

AZZ001>003-036-270900-
NORTHWEST ARIZONA

CITY           SKY/WX    TMP DP  RH WIND       PRES   REMARKS
KINGMAN        CLEAR     74  60  61 E8        30.14S
$$

AZZ004>008-015-016-018-270900-
NORTH CENTRAL ARIZONA

CITY           SKY/WX    TMP DP  RH WIND       PRES   REMARKS
GRAND CANYON   CLEAR     51  50  96 CALM      30.38S
WILLIAMS       PTCLDY    54  54 100 SE6       30.44S
PRESCOTT       MOCLDY    65  60  84 S3        30.27S
FLAGSTAFF      NOT AVBL
PAYSON         PTCLDY    68  59  73 CALM      30.29R
PAGE           MOCLDY    71  62  73 CALM      30.21F
$$

AZZ009>014-017-270900-
NORTHEAST ARIZONA

CITY           SKY/WX    TMP DP  RH WIND       PRES   REMARKS
WINSLOW        NOT AVBL
SAINT JOHNS    CLOUDY    62  56  80 SE6       30.31F
WINDOW ROCK    MOCLDY    60  56  86 CALM      30.41S
SHOW LOW       MOCLDY    59  54  82 S6        30.37S
$$

AZZ023-270900-
GREATER PHOENIX AREA

CITY           SKY/WX    TMP DP  RH WIND       PRES   REMARKS
PHOENIX        MOCLDY    92  60  34 SE7       29.92R
LUKE AFB       PTCLDY    92  61  34 SE5       29.92S
DEER VALLEY    PTCLDY    90  59  35 E3        29.95S
SCOTTSDALE     PTCLDY    90  60  36 CALM      29.97S
$$

AZZ027-028-270900-
SOUTHWEST MARICOPA COUNTY AND PINAL COUNTY

CITY           SKY/WX    TMP DP  RH WIND       PRES   REMARKS
CASA GRANDE    MOCLDY    88  61  40 E5        29.95S
GILA BEND      FAIR      93  60  32 SW9       29.91R
$$

AZZ503-504-507>509-270900-
SOUTHEAST ARIZONA

CITY           SKY/WX    TMP DP  RH WIND       PRES   REMARKS
TUCSON         MOCLDY    81  62  52 SE8       30.09S
DAVIS-MONTHAN  PTCLDY    78  63  60 SE8       30.07S
NOGALES        PTCLDY    68  60  75 S6        30.17S
SIERRA VISTA   MOCLDY    68  61  79 SW5       30.25S
SAFFORD        MOCLDY    75  65  70 NW5       30.11R
$$

AZZ020-021-025-026-031-270900-
SOUTHWEST ARIZONA

CITY           SKY/WX    TMP DP  RH WIND       PRES   REMARKS
YUMA           CLEAR     92  66  42 S7        29.86S
$$

CAZ031-033-041-043-047-048-061-270900-
SOUTHERN CALIFORNIA

CITY           SKY/WX    TMP DP  RH WIND       PRES   REMARKS
DOWNTOWN L.A.  CLEAR     74  65  73 CALM      29.96F
L.A. AIRPORT   PTCLDY    72  67  84 CALM      29.97S
SAN DIEGO      PTCLDY    74  68  81 CALM      29.97F
ONTARIO        CLEAR     77  56  48 W5        29.99S
RIVERSIDE      CLEAR     77  59  53 CALM      29.99S
PALM SPRINGS   CLEAR     95  52  23 NW8       29.90S
EL CENTRO NAS  CLEAR     91  57  31 W8        29.85S
IMPERIAL       CLEAR     91  61  36 W7        29.83S
BLYTHE         CLEAR     90  64  42 NE6       29.87S
$$

NVZ020-UTZ003-270900-
SOUTHERN NEVADA-UTAH

CITY           SKY/WX    TMP DP  RH WIND       PRES   REMARKS
LAS VEGAS      NOT AVBL
SALT LAKE CITY PTCLDY    68  56  65 S5        30.17R
$$

NMZ009-TXZ055-270900-
NEW MEXICO-WEST TEXAS

CITY           SKY/WX    TMP DP  RH WIND       PRES   REMARKS
ALBUQUERQUE    CLOUDY    68  58  70 NE10      30.35F
EL PASO        CLOUDY    81  55  40 NW6       30.18R
$$


........................KEY........................
SKY/WX - SKY CONDITION/WEATHER
TMP    - TEMPERATURE IN FAHRENHEIT
DP     - DEW POINT IN FAHRENHEIT
RH     - RELATIVE HUMIDITY IN PERCENT
WIND   - DIRECTION AND SPEED IN MILES PER HOUR (MPH)
VRB    - VARIABLE WIND DIRECTION
PRES   - MEAN SEA LEVEL PRESSURE IN INCHES OF MERCURY
         F - FALLING PRESSURE   R - RISING PRESSURE
         S - STEADY PRESSURE
VSB    - VISIBILITY IN MILES
HX     - HEAT INDEX IN FAHRENHEIT
WCI    - WIND CHILL INDEX IN FAHRENHEIT
TC     - TEMPERATURE IN CELSIUS WHICH IS ALSO KNOWN AS
         TEMPERATURE IN CENTIGRADE
AFB    - AIR FORCE BASE
         LUKE AFB IS LUKE AIR FORCE BASE
         DAVIS-MONTHAN IS DAVIS-MONTHAN AIR FORCE BASE
NAS    - NAVAL AIR STATION
         EL CENTRO NAS IS EL CENTRO NAVAL AIR STATION
N/A    - NOT AVAILABLE




USA.gov is the U.S. government's official web portal to all federal, state and local government web resources and services.